Flag for India Weather past 2 weeks in Bhilwara, Rajasthan, India

Now
82 °F

Drizzle. Partly sunny.


Feels Like: 91 °F
Forecast: 76 / 84 °F
Wind: 10 mph from West

Location: Jaipur / Sanganer

Current Time: Jul 31, 2015 at 3:01:44 PM

Latest Report: Jul 31, 2015 at 2:00 PM


Visibility: 2 mi

Pressure: 29.62 "Hg

Humidity: 84%

Dew point: 77 °F

Location of BhilwaraLocation

Historic Weather in Bhilwara — Graph

°F

Bhilwara temperature yesterday

Maximum temperature yesterday: 82 °F (at 2:00 PM)
Minimum temperature yesterday: 75 °F (at 12:00 AM)
Average temperature yesterday: 78 °F

Past Weeks' High & Low Weather Summary

 TemperatureHumidityPressure
High99 °F (Jul 16, 4:00 PM)100% (Jul 17, 4:00 PM)29.71 "Hg (Jul 17, 4:00 PM)
Low73 °F (Jul 27, 2:00 AM)39% (Jul 16, 4:00 PM)29.42 "Hg (Jul 26, 4:00 PM)
Average83 °F82%29.56 "Hg
* Reported Jul 16 12:30 PM — Jul 31 1:00 PM, Bhilwara, Weather by CustomWeather, © 2015

Note: Actual official high and low records may vary slightly from our data, if they occured in-between our weather recording intervals... More about our weather records

Advertising

Bhilwara weather history for previous 24 hours

 ConditionsComfort  
Time TempWeatherWind HumidityBarometerVisibility
1:00 PM
Fri, Jul 31
82 °FMostly cloudy.10 mph79%29.65 "Hg2 mi
12:00 PM82 °FMostly cloudy.12 mph79%29.65 "Hg2 mi
10:00 AM79 °FPartly sunny.8 mph84%29.65 "Hg2 mi
9:00 AM79 °FMostly cloudy.9 mph84%29.62 "Hg2 mi
7:00 AM77 °FBroken clouds.7 mph89%29.59 "Hg2 mi
6:00 AM77 °FPartly cloudy.7 mph89%29.59 "Hg2 mi
5:00 AM77 °FFog.8 mph89%29.59 "Hg2 mi
4:00 AM77 °FFog.5 mph89%29.59 "Hg2 mi
1:00 AM77 °FFog.5 mph89%29.62 "Hg2 mi
12:00 AM79 °FFog.6 mph84%29.62 "Hg2 mi
11:00 PM
Thu, Jul 30
79 °FFog.7 mph89%29.62 "Hg2 mi
10:00 PM79 °FPartly cloudy.8 mph84%29.62 "Hg2 mi
8:00 PM81 °FPartly cloudy.13 mph79%29.59 "Hg1 mi
7:00 PM81 °FBroken clouds.9 mph84%29.56 "Hg2 mi
5:00 PM81 °FPartly sunny.10 mph84%29.56 "Hg1 mi
4:00 PM81 °FPartly sunny.14 mph84%29.56 "Hg1 mi
3:00 PM82 °FPartly sunny.16 mph79%29.59 "Hg1 mi
Weather by CustomWeather, © 2015

See weather overviewHow to use our weather pages